Location: Bou Ouachlou
(32.7770°N, 5.6009°W)
Time: 02:45:34
(UTC+00:00)

Cosmos 2058 - Pass Details

Date: 07 June 2020
Orbit: 561 x 584 km, 82.5° (Epoch: 05 July)

Event Time Altitude Azimuth Distance (km) Brightness Sun altitude
Exits shadow 02:26:59 54° 23° (NNE) 713 3.6 -26.9°
Drops below altitude 10° 02:30:19 10° 9° (N) 1,909 6.4 -26.5°
Sets 02:32:31 0° 8° (N) 2,813 7.4 -26.2°
